AirNav   TITAN Aviation Fuels
 
 656 users online  

5J5 Holly Hill Airport
Holly Hill, South Carolina, USA

GOING TO HOLLY HILL?


FAA INFORMATION EFFECTIVE 09 SEPTEMBER 2021

Location

FAA Identifier: 5J5
Lat/Long: 33-18-05.4900N 080-23-35.0900W
33-18.091500N 080-23.584833W
33.3015250,-80.3930806
(estimated)
Elevation: 96 ft. / 29 m (estimated)
Variation: 05W (1985)
From city: 2 miles SE of HOLLY HILL, SC
Time zone: UTC -4 (UTC -5 during Standard Time)
Zip code: 29059

Airport Operations

Airport use: Open to the public
Control tower: no
ARTCC: JACKSONVILLE CENTER
FSS: ANDERSON FLIGHT SERVICE STATION
NOTAMs facility: AND (NOTAM-D service available)
Attendance: UNATNDD
Wind indicator: yes
Segmented circle: no

Airport Communications

CTAF: 122.9
WX AWOS-3 at DYB (15 nm S): 119.575 (843-821-8403)
WX AWOS-3 at MKS (19 nm E): 119.175 (843-761-1486)
WX AWOS-3 at MNI (19 nm NE): 120.175 (803-478-6060)

Nearby radio navigation aids

VOR radial/distance  VOR name  Freq  Var
VANr171/10.8VANCE VORTAC110.4006W
CHSr329/30.3CHARLESTON VORTAC113.5005W

 
NDB name  Hdg/Dist  Freq  Var  ID
DORCHESTER COUNTY345/15.536507WDYB -.. -.-- -...
MANNING215/19.638106WMNI -- -. ..

Airport Services

Parking: tiedowns
Airframe service: NONE
Powerplant service: NONE
Bottled oxygen: NONE
Bulk oxygen: NONE

Runway Information

Runway 4/22

Dimensions: 3900 x 75 ft. / 1189 x 23 m
Surface: turf, in good condition
RUNWAY 4  RUNWAY 22
Latitude: 33-17.856667N33-18.326333N
Longitude: 080-23.846667W080-23.323000W
Elevation: 94.0 ft.95.0 ft.
Traffic pattern: leftleft
Runway heading: 048 magnetic, 043 true228 magnetic, 223 true
Obstructions: 74 ft. tree, 459 ft. from runway, 120 ft. left of centerline, 6:1 slope to clear
ROAD AT END OF RUNWAY 4
79 ft. tree, 760 ft. from runway, 188 ft. right of centerline, 9:1 slope to clear

Airport Ownership and Management from official FAA records

Ownership: Publicly-owned
Owner: TOWN OF HOLLY HILL
PO BOX 1108
HOLLY HILL, SC 29059
Phone 803-496-3330
Manager: WILLIAM SKINNER JOHNSON
140 AIRPORT RD
HOLLY HILL, SC 29059
Phone (803) 496-4556

Airport Operational Statistics

Aircraft based on the field: 16
Single engine airplanes: 15
Ultralights: 1
    
Aircraft operations: avg 63/week *
76% local general aviation
24% transient general aviation
* for 12-month period ending 03 May 2019

Additional Remarks

FOR CD CTC CHARLESTON APCH AT 843-414-2832.

Instrument Procedures

There are no published instrument procedures at 5J5.

Some nearby airports with instrument procedures:

6J2 - St George Airport (9 nm SW)
KDYB - Summerville Airport (15 nm S)
KMKS - Berkeley County Airport (19 nm E)
KMNI - Santee Cooper Regional Airport (19 nm NE)
KOGB - Orangeburg Municipal Airport (25 nm W)
 
Loc | Ops | Rwys | IFR | FBO | Links
Com | Nav | Svcs | Stats | Notes
Area around 5J5 (Holly Hill Airport)
 
Road maps at: MapQuest Bing Google
 
Aerial photo
WARNING: Photo may not be current or correct
Aerial photo of 5J5 (Holly Hill Airport)
Do you have a better or more recent aerial photo of Holly Hill Airport that you would like to share? If so, please send us your photo.

 
Sectional chart

 
Airport distance calculator
Flying to Holly Hill Airport? Find the distance to fly.

From to 5J5

Sunrise and sunset
Times for 25-Sep-2021
 Local
(UTC-4)
 Zulu
(UTC)
Morning civil twilight06:4810:48
Sunrise07:1311:13
Sunset19:1423:14
Evening civil twilight19:3923:39

Current date and time
Zulu (UTC)  25-Sep-2021 12:00:31
Local (UTC-4)  25-Sep-2021 08:00:31
 
METAR
KDYB 
15nm S 
251155Z AUTO 00000KT 9SM CLR 14/14 A3008 RMK AO2
KMKS 
19nm E 
251155Z AUTO 00000KT 10SM CLR 12/12 A3008 RMK AO2
KOGB 
25nm NW 
251153Z AUTO 00000KT 10SM CLR 13/12 A3010 RMK AO2 SLP193 T01280117 10139 20117 53012 TSNO
KRBW 
26nm SW 
251155Z AUTO 00000KT 10SM CLR 11/10 A3010 RMK AO2
KCHS 
30nm SE 
251056Z 34003KT 10SM CLR 12/11 A3006 RMK AO2 SLP180 T01220111
TAF
KOGB 
25nm NW 
250900Z 2509/2606 VRB03KT P6SM SCT250 TEMPO 2510/2512 3SM BR
KCHS 
30nm SE 
250520Z 2506/2606 34005KT P6SM SKC FM252300 VRB03KT P6SM FEW250
NOTAMs
Click for the latest NOTAMs
NOTAMs are issued by the DoD/FAA and will open in a separate window not controlled by AirNav.

 

 
 

Would you like to see your business listed on this page?

 If your business provides an interesting product or service to pilots, flight crews, aircraft, or users of the Holly Hill Airport, you should consider listing it here.  To start the listing process, click on the button below
 
Add a business
 

Other Pages about Holly Hill Airport

Update a link
 
Copyright © AirNav, LLC. All rights reserved. Privacy Policy  Contact